EW6584 Weather Reports


Display with metric or nautical units.
time (UTC)temp
F
wind
direction
speed
MPH
gust
MPH
rain 1hr
in
rain 24hr
in
rain mn
in
humidity
%
barometer
mb
20260505113040 55 245 2.0 6.0 0.00 0.00 0.00 88 1013.5
20260505111605 55 211 3.0 7.0 0.00 0.00 0.00 88 1013.5
20260505111507 55 212 2.0 7.0 0.00 0.00 0.00 88 1013.5
20260505101538 54 174 2.0 5.0 0.00 0.00 0.00 89 1013.1
20260505100026 54 178 3.0 6.0 0.00 0.00 0.00 89 1013.0
20260505094555 54 187 2.0 5.0 0.00 0.00 0.00 89 1013.0
20260505093010 54 206 2.0 5.0 0.00 0.00 0.00 89 1012.9
20260505091515 54 211 3.0 8.0 0.00 0.00 0.00 89 1012.8
20260505090030 54 213 4.0 11.0 0.00 0.00 0.00 89 1012.7
20260505084543 54 226 5.0 11.0 0.00 0.00 0.00 89 1012.6
20260505083103 54 227 4.0 8.0 0.00 0.00 0.00 89 1012.6
20260505083006 54 188 3.0 8.0 0.00 0.00 0.00 89 1012.6
20260505081511 54 192 4.0 7.0 0.00 0.00 0.00 89 1012.5
20260505080049 54 217 3.0 7.0 0.00 0.00 0.00 89 1012.5
20260505074555 54 204 2.0 6.0 0.00 0.00 0.00 89 1012.3
20260505073051 54 215 2.0 6.0 0.00 0.00 0.00 89 1012.1
20260505071558 54 232 3.0 9.0 0.00 0.00 0.00 89 1011.8
20260505070100 55 223 2.0 9.0 0.00 0.00 0.00 88 1011.9
20260505064509 55 179 4.0 8.0 0.00 0.00 0.00 88 1011.8
20260505063044 55 247 5.0 11.0 0.00 0.00 0.00 87 1011.6
20260505061555 55 214 4.0 7.0 0.00 0.00 0.00 87 1011.5
20260505060034 55 190 3.0 9.0 0.00 0.00 0.00 86 1011.3
20260505054533 56 251 2.0 7.0 0.00 0.00 0.00 85 1011.1
20260505053040 56 268 2.0 7.0 0.00 0.00 0.00 84 1011.0
20260505051603 57 250 3.0 5.0 0.00 0.00 0.00 83 1011.1
20260505041544 59 249 5.0 10.0 0.00 0.00 0.00 79 1010.3
20260505040101 60 256 5.0 16.0 0.00 0.00 0.00 77 1010.1
20260505040004 60 245 6.0 16.0 0.00 0.00 0.00 77 1010.1
20260505034540 61 228 5.0 11.0 0.00 0.00 0.00 74 1009.9
20260505033056 62 227 5.0 12.0 0.00 0.00 0.00 72 1009.8
20260505031544 64 214 4.0 8.0 0.00 0.00 0.00 70 1009.7
20260505030034 65 264 4.0 11.0 0.00 0.00 0.00 68 1009.5
20260505024523 66 237 2.0 7.0 0.00 0.00 0.00 66 1009.3
20260505023018 67 229 4.0 10.0 0.00 0.00 0.00 63 1009.2
20260505021529 68 242 3.0 6.0 0.00 0.00 0.00 62 1009.0
20260505020039 69 252 5.0 11.0 0.00 0.00 0.00 59 1009.0
20260505014600 71 228 5.0 11.0 0.00 0.00 0.00 56 1009.0
20260505014504 71 245 3.0 11.0 0.00 0.00 0.00 56 1009.0
20260505013057 74 222 3.0 9.0 0.00 0.00 0.00 53 1009.0
20260505011609 75 262 2.0 8.0 0.00 0.00 0.00 51 1009.0
20260505010036 75 259 3.0 11.0 0.00 0.00 0.00 52 1009.0
20260505004524 77 281 1.0 10.0 0.00 0.00 0.00 51 1009.0
20260505003039 77 297 1.0 9.0 0.00 0.00 0.00 51 1009.0
20260505001530 77 305 2.0 8.0 0.00 0.00 0.00 50 1009.0
20260505000020 77 315 2.0 7.0 0.00 0.00 0.00 50 1009.0
20260504234521 77 228 4.0 9.0 0.00 0.00 0.00 50 1008.9
20260504233008 76 297 2.0 10.0 0.00 0.00 0.00 50 1009.0
20260504231519 76 266 4.0 9.0 0.00 0.00 0.00 50 1009.1
20260504230034 77 228 2.0 7.0 0.00 0.00 0.00 52 1009.3
20260504224535 75 240 4.0 11.0 0.00 0.00 0.00 52 1009.5
20260504223054 76 258 2.0 10.0 0.00 0.00 0.00 52 1009.6
20260504221551 76 298 3.0 9.0 0.00 0.00 0.00 50 1009.7
20260504220059 77 336 1.0 10.0 0.00 0.00 0.00 50 1009.8
20260504220002 76 293 1.0 10.0 0.00 0.00 0.00 50 1009.8
20260504214541 76 314 3.0 9.0 0.00 0.00 0.00 50 1009.9
20260504213043 75 245 2.0 7.0 0.00 0.00 0.00 51 1010.0
20260504211552 73 234 5.0 10.0 0.00 0.00 0.00 52 1010.0
20260504210055 74 278 3.0 9.0 0.00 0.00 0.00 54 1010.1
20260504204606 73 299 3.0 10.0 0.00 0.00 0.00 54 1010.1
20260504204500 73 291 3.0 10.0 0.00 0.00 0.00 53 1010.1
20260504203018 73 291 2.0 8.0 0.00 0.00 0.00 53 1010.2
20260504201523 72 239 5.0 9.0 0.00 0.00 0.00 53 1010.2
20260504200039 72 235 4.0 9.0 0.00 0.00 0.00 55 1010.5
20260504194551 71 245 3.0 9.0 0.00 0.00 0.00 56 1010.4
20260504193055 71 282 2.0 8.0 0.00 0.00 0.00 57 1010.4
20260504191503 70 276 1.0 9.0 0.00 0.00 0.00 57 1010.6
20260504190019 70 293 2.0 8.0 0.00 0.00 0.00 58 1010.7
20260504184533 69 257 3.0 9.0 0.00 0.00 0.00 59 1010.8
20260504183011 68 258 3.0 8.0 0.00 0.00 0.00 59 1010.9
20260504181526 68 245 2.0 5.0 0.00 0.00 0.00 60 1010.9
20260504180025 66 245 3.0 9.0 0.00 0.00 0.00 63 1010.8
20260504174507 65 201 4.0 10.0 0.00 0.00 0.00 64 1010.8
20260504173013 64 228 4.0 9.0 0.00 0.00 0.00 66 1010.9
20260504171527 64 217 4.0 8.0 0.00 0.00 0.00 67 1010.8
20260504160104 62 223 1.0 7.0 0.00 0.00 0.00 70 1010.4